Location: Asheville, NC
(35.6000°N, 82.5500°W)
Time: 16:17:39
(UTC-05:00)

Vanguard 2 Rocket - Pass Details

Date: 17 February 2018
Orbit: 555 x 3327 km, 32.9° (Epoch: 21 February)

Event Time Altitude Azimuth Distance (km) Brightness Sun altitude
Rises 05:04:34 0° 282° (WNW) 6,998 - -27.1°
Reaches altitude 10° 05:09:05 10° 280° (W) 6,145 - -26.2°
Exits shadow 05:17:14 32° 271° (W) 4,704 9.9 -24.5°
Maximum altitude 05:28:55 62° 206° (SSW) 3,447 9.6 -22.1°
Drops below altitude 10° 05:45:03 10° 130° (SE) 5,114 11.4 -18.9°
Sets 05:48:26 0° 127° (SE) 5,817 11.9 -18.2°
